Theta_e
322 322 320 322 322 322 320 320 320 321 318 316 318 317 316 314 315 315 313 314 314 315 314 315 314 314 315 316 316 315 314 315 316 315 315 315 314 314 319 322 325 328 325 324 325 325 324 322 320 321 320 321 319 318 318 319 317 318 318 317 317 317 317 317 317 317 316 317 316 316 315 316 316 316 316 316 315 315 314 314 313 314 314 313 312
322 322 320 321 321 321 320 319 319 319 317 318 316 316 315 314 313 314 313 313 313 316 312 313 313 313 313 314 315 315 313 314 315 314 315 315 315 314 316 319 323 326 327 324 325 325 324 322 322 322 322 321 320 320 318 318 319 318 318 318 317 317 316 316 316 316 316 316 317 316 315 316 316 315 315 316 315 315 314 314 313 313 313 313 312
322 323 321 320 320 320 319 319 318 317 318 318 318 317 316 316 316 314 314 314 314 314 313 315 312 312 312 313 315 313 314 313 313 314 314 314 315 314 315 317 320 324 327 325 325 326 326 325 324 322 322 322 321 321 320 319 319 318 319 318 318 317 317 316 316 316 316 317 317 316 315 315 315 315 315 315 315 315 314 314 314 313 312 312 311
322 323 322 321 321 319 318 317 319 316 318 318 317 317 317 316 314 314 314 315 315 311 315 314 312 313 311 312 311 313 313 312 312 313 314 314 315 315 315 315 316 320 323 327 326 327 327 325 326 325 323 324 324 323 322 320 319 320 319 319 320 318 318 317 317 316 316 316 317 317 316 315 315 315 315 315 314 314 314 314 313 312 312 311 311
321 322 321 321 321 320 319 318 318 317 317 316 315 314 313 312 313 313 313 312 312 311 312 312 311 311 311 313 311 312 310 312 311 311 313 313 314 314 314 314 314 315 317 321 326 328 328 328 329 327 326 325 324 323 324 322 320 320 320 320 320 320 320 318 317 317 317 317 317 317 316 316 315 315 315 315 315 314 314 313 313 312 312 311 311
322 320 321 321 321 321 320 319 318 316 317 316 315 314 314 311 311 312 314 312 310 309 310 311 311 309 308 311 311 314 311 310 309 309 309 311 309 312 313 312 313 313 315 317 319 322 327 328 328 328 326 325 325 325 324 324 323 322 320 321 321 321 321 320 319 319 318 318 317 317 317 316 316 315 315 315 314 314 314 313 313 312 312 311 311
320 320 320 321 321 320 319 320 319 317 317 315 315 314 314 314 310 312 310 310 309 308 309 310 310 313 312 308 313 313 309 313 309 308 308 306 306 306 308 309 312 312 313 313 312 315 321 325 327 326 327 326 326 326 325 325 325 323 322 321 321 322 322 321 321 320 319 318 318 317 317 316 316 316 316 315 315 315 314 314 313 313 312 312 311
321 321 319 319 320 320 320 320 318 317 316 314 315 315 314 313 311 312 310 311 309 311 308 309 310 311 310 310 310 310 310 307 308 307 306 305 306 306 307 308 309 309 311 311 313 314 315 318 322 324 325 326 326 326 327 327 326 325 324 324 324 322 322 322 322 321 320 319 318 318 317 317 317 316 316 316 315 315 315 314 314 313 313 313 312
326 323 320 319 321 322 321 321 319 317 317 316 315 315 314 314 311 311 311 309 309 309 309 309 310 309 309 308 307 307 308 307 306 306 305 306 307 307 308 309 309 308 308 307 309 311 312 314 317 320 321 324 327 327 326 326 326 326 325 325 325 324 322 322 322 322 321 320 319 318 318 317 317 317 317 317 316 315 315 314 315 314 313 312 313
327 327 323 323 323 323 323 323 322 320 318 317 317 316 314 313 313 310 311 310 308 309 309 310 309 310 308 307 306 303 303 303 302 302 304 307 307 307 308 309 308 309 309 308 308 308 308 310 311 312 312 316 322 325 326 326 326 326 326 326 325 325 324 323 322 322 321 321 320 319 318 318 318 317 317 317 316 316 315 315 315 314 314 314 312
328 327 326 325 323 322 323 323 323 320 318 317 316 315 314 313 312 310 309 311 311 310 310 309 309 307 307 305 302 301 301 301 300 302 302 304 305 307 306 308 308 308 308 308 307 306 306 307 307 308 310 312 318 322 324 324 324 326 327 326 325 326 325 323 322 322 321 321 321 320 319 319 318 317 317 317 317 316 316 316 315 315 314 314 313
327 326 325 323 322 322 323 323 322 320 318 316 315 315 314 311 310 311 311 311 311 309 305 305 303 304 305 304 300 300 302 302 303 303 303 302 303 303 304 306 305 306 306 306 305 305 305 306 306 307 308 309 312 315 319 322 323 325 326 327 326 328 327 325 323 323 322 322 321 320 320 319 319 319 318 317 317 317 316 316 316 316 315 314 313
327 327 326 322 323 321 321 319 320 320 319 317 317 315 313 312 312 311 312 311 310 304 303 304 304 303 303 303 304 305 305 304 304 303 303 303 302 302 302 302 303 304 305 305 304 303 303 304 306 306 306 306 307 309 312 316 318 323 325 325 327 327 327 327 324 323 323 322 322 321 320 320 319 319 319 318 318 318 317 317 317 316 315 315 314
326 327 325 324 323 321 320 320 320 320 320 319 317 313 313 312 312 310 310 311 309 306 305 307 303 304 304 304 305 306 306 305 304 304 303 302 301 301 301 301 302 303 303 303 303 302 303 303 302 303 304 305 306 306 307 309 311 317 322 324 325 327 328 326 326 327 325 323 322 322 321 321 321 320 320 319 318 318 318 318 317 317 316 316 315
326 325 326 325 324 322 321 321 321 320 318 317 316 315 314 312 310 310 306 303 305 304 306 308 307 304 304 303 302 303 303 299 302 302 302 302 300 300 301 301 301 302 302 301 302 302 302 302 302 302 303 304 305 306 307 305 307 308 315 319 321 326 327 328 328 328 325 324 324 323 322 321 321 321 321 320 319 319 319 319 318 318 317 317 316
326 325 325 325 324 323 322 321 321 320 319 318 316 315 314 313 311 309 310 309 307 307 306 307 309 307 303 303 301 301 301 303 299 302 300 302 301 300 300 300 301 301 300 300 301 301 301 301 301 302 302 303 305 305 306 306 306 304 304 307 311 318 323 325 328 327 325 326 325 323 323 322 322 321 321 320 320 320 320 319 318 318 318 318 317
325 324 322 324 324 325 324 323 322 320 320 319 317 316 315 314 312 311 311 312 311 309 307 307 307 310 309 301 300 299 300 302 303 306 300 300 300 300 300 300 300 300 299 299 299 300 301 301 301 302 302 303 303 304 304 304 305 304 305 302 303 310 316 322 325 326 327 328 325 325 324 323 321 322 322 321 321 320 320 319 319 318 318 318 317
324 324 324 323 325 326 325 324 323 322 319 319 318 315 314 313 313 313 311 312 313 310 307 305 306 307 309 311 311 308 304 302 304 302 305 302 300 298 299 300 299 299 299 299 299 300 300 300 301 301 301 301 302 302 302 303 303 304 305 306 309 310 311 314 320 324 326 327 327 327 327 323 323 323 323 322 321 320 320 319 319 318 318 318 318
324 326 326 326 327 327 326 324 323 322 318 319 316 316 317 315 314 313 313 312 311 310 310 309 304 304 306 307 308 308 306 304 303 302 301 302 300 298 299 298 299 299 299 299 300 301 301 300 300 300 300 301 301 301 301 302 303 304 307 309 312 312 313 313 314 318 322 325 325 325 326 325 323 324 324 323 322 321 321 320 320 319 319 319 318
324 324 326 327 326 326 325 324 322 320 317 318 319 318 317 314 313 314 313 311 311 310 310 311 306 306 304 304 304 305 306 305 305 303 301 299 302 304 302 299 298 298 300 301 301 301 301 300 300 300 300 300 299 299 300 300 300 301 302 308 312 313 313 313 313 313 316 319 323 324 325 325 325 325 323 323 323 322 322 321 319 319 319 319 319
320 321 321 321 319 323 324 323 322 322 317 318 318 317 317 315 313 312 312 311 311 311 311 310 308 309 304 302 303 303 304 304 303 302 299 299 300 302 304 298 297 300 300 300 301 301 301 301 301 300 299 299 298 298 299 299 299 300 302 306 310 313 315 315 314 313 313 314 317 319 323 324 324 323 324 324 324 325 324 323 321 320 319 319 318
313 314 317 318 319 319 321 321 321 321 316 318 318 317 316 316 316 315 313 312 312 311 311 312 312 311 309 306 302 301 301 301 301 301 300 301 299 301 303 303 302 305 302 299 299 300 300 300 299 300 299 299 299 298 298 298 299 299 300 303 306 311 313 313 313 314 313 313 314 315 318 321 323 324 324 324 324 324 323 321 321 322 322 320 319
310 311 312 312 315 316 319 319 319 317 316 318 317 317 317 316 316 315 314 313 313 312 310 310 311 310 309 308 307 305 305 302 301 300 300 297 297 298 300 301 301 302 305 303 301 301 301 300 299 299 299 299 299 299 299 299 298 299 299 302 304 306 308 310 312 312 313 314 314 315 315 316 318 320 322 323 322 324 322 324 321 322 322 322 320
308 310 314 316 315 315 314 316 316 317 317 317 316 317 317 316 316 315 314 312 312 309 310 310 309 309 309 308 308 308 306 306 307 307 303 303 302 301 301 303 302 303 305 303 304 302 301 299 299 298 298 298 298 298 298 299 299 298 298 299 302 305 308 310 312 310 311 311 312 314 315 315 316 316 318 320 322 323 323 324 324 322 321 323 322
309 312 311 312 313 316 315 313 314 314 316 317 317 317 316 316 314 313 313 312 312 311 310 309 309 308 308 309 308 308 307 308 306 305 305 304 303 301 302 302 301 302 304 303 302 299 303 302 299 298 297 297 298 297 297 298 298 298 298 298 301 302 304 306 309 310 310 310 311 311 313 314 315 316 318 318 320 322 322 323 322 323 323 322 321
311 311 312 312 310 311 313 314 312 314 314 315 315 315 315 315 314 314 313 313 310 310 309 309 308 308 308 307 307 307 308 307 307 305 304 303 301 301 300 298 299 300 302 299 299 299 301 299 301 300 298 297 297 297 296 297 297 297 297 297 299 301 302 303 305 306 307 308 309 310 310 311 313 314 315 318 319 319 321 322 322 322 323 322 323
312 313 310 310 309 308 310 312 312 313 311 311 311 313 313 312 311 310 310 309 309 309 308 308 308 307 306 306 306 306 306 306 305 305 305 304 303 302 300 299 299 298 297 299 296 299 302 303 299 298 297 297 297 296 296 296 296 297 295 296 296 297 300 302 305 307 307 307 307 308 308 309 310 312 312 314 316 317 318 319 320 322 322 322 321
307 305 304 304 305 306 306 308 310 311 311 308 309 308 307 308 308 309 309 310 308 307 306 305 306 306 305 305 305 305 306 306 306 306 306 306 305 305 302 300 297 295 297 296 296 299 301 301 297 298 297 297 297 296 296 296 296 297 295 295 295 296 298 301 304 306 306 306 307 307 307 308 309 310 310 311 311 313 314 315 316 316 315 314 314
303 302 300 300 301 301 302 303 304 304 305 307 308 309 307 306 304 304 304 304 306 307 306 306 306 305 305 306 306 306 306 306 305 305 305 305 305 304 303 302 301 297 295 295 297 296 298 301 298 294 295 296 296 295 295 294 295 295 295 295 295 296 297 300 303 306 307 307 307 307 307 307 307 308 308 308 309 310 310 311 312 312 313 314 315
300 300 299 299 298 297 298 298 298 299 301 303 304 306 307 306 307 305 304 303 303 301 301 303 305 304 304 304 303 302 303 302 302 304 303 304 302 303 303 303 302 299 298 295 296 297 298 299 301 300 292 293 293 293 293 293 294 295 295 295 296 296 297 299 301 304 305 306 306 307 308 308 307 308 307 307 308 309 310 309 310 311 313 315 316
299 298 298 296 295 295 295 295 296 296 296 297 295 296 298 301 300 300 302 302 301 300 300 302 302 302 302 302 301 300 301 302 303 303 302 302 302 302 302 302 301 301 299 298 294 298 300 298 297 299 296 293 294 294 294 293 294 294 295 295 295 295 295 296 297 300 302 303 304 305 306 307 307 307 307 307 308 308 309 309 309 309 311 313 315
295 294 294 294 293 294 293 292 293 294 294 294 294 295 294 294 292 296 298 299 299 298 297 297 300 299 300 301 300 299 299 300 301 301 301 301 302 302 302 302 301 301 300 298 295 295 299 299 300 301 301 300 299 297 298 298 298 294 296 295 295 294 294 295 295 297 299 301 302 303 305 306 306 306 306 307 307 308 308 309 309 310 310 311 312
291 292 293 291 291 291 291 291 290 292 292 292 292 293 292 293 294 297 297 298 298 298 298 297 296 296 298 299 300 299 299 300 300 299 298 299 297 298 298 298 298 296 297 295 294 294 298 300 299 300 300 300 298 298 298 298 297 296 294 294 294 294 294 294 294 294 296 299 300 301 301 302 303 304 304 305 305 306 306 307 308 309 309 309 309
289 290 290 289 289 290 289 289 290 292 294 296 292 292 291 291 292 295 295 296 297 296 297 296 297 298 297 298 298 298 297 298 298 298 296 295 293 293 293 293 295 295 293 294 294 294 293 297 295 298 298 298 296 298 295 297 297 296 294 294 294 293 293 294 294 294 295 296 298 300 301 302 302 302 303 302 303 304 307 308 306 306 306 306 307
287 289 288 290 289 289 290 290 292 294 296 295 295 295 294 294 294 295 295 295 296 295 295 295 296 296 297 296 297 297 298 297 297 296 295 294 294 294 294 295 294 295 294 294 294 293 293 294 297 296 297 298 297 298 297 297 297 297 296 296 295 295 293 293 293 293 295 297 298 298 299 300 301 301 301 301 302 302 303 303 303 304 304 304 305
290 289 288 287 288 287 288 288 290 292 291 292 292 292 294 294 294 295 294 294 294 295 295 295 295 295 295 295 296 296 295 295 295 294 293 292 292 292 293 293 293 293 293 293 293 293 294 293 295 295 296 295 297 298 297 296 296 296 295 295 295 294 294 293 292 292 293 296 297 298 299 299 299 299 300 300 300 300 301 301 302 302 302 302 302
287 288 289 287 286 287 288 289 290 289 288 289 290 290 290 291 292 292 292 292 293 293 293 294 292 294 294 294 294 294 294 293 292 292 292 292 292 292 292 292 292 293 293 293 293 293 293 292 293 295 295 295 296 296 296 295 296 296 295 293 294 294 294 293 292 292 293 295 296 296 296 298 298 298 299 299 299 299 300 300 300 300 300 301 300
287 287 287 286 286 286 286 287 287 286 285 285 286 287 287 286 287 287 287 288 288 288 289 290 290 290 291 292 293 293 293 292 292 292 292 291 292 292 291 292 292 292 292 292 292 292 292 292 292 292 294 294 294 295 296 294 294 294 294 295 294 292 291 291 291 291 290 290 290 291 292 294 296 297 297 297 297 297 298 298 298 299 298 298 299
286 286 285 286 286 287 287 287 287 287 287 286 287 286 287 286 286 286 286 285 286 285 286 287 287 287 288 289 290 290 291 291 291 291 291 291 291 291 291 291 292 291 291 291 291 291 291 291 291 292 292 293 293 292 294 294 293 293 292 292 291 293 291 289 290 291 290 289 291 292 292 292 292 292 293 295 295 296 296 296 297 297 296 296 297
285 285 286 286 285 285 285 286 285 285 286 286 285 285 285 285 285 285 285 285 285 285 284 285 285 285 286 287 288 288 289 290 290 290 290 290 291 290 291 291 291 291 290 290 290 290 290 290 290 290 291 291 292 293 293 292 291 291 291 289 289 290 291 290 289 289 291 289 288 288 290 291 291 292 293 294 295 295 294 294 294 294 294 295 296
285 284 284 285 285 285 284 285 285 284 285 285 286 286 286 286 285 285 285 285 284 285 285 285 285 285 285 285 286 287 287 288 289 289 290 291 291 290 290 291 290 290 290 290 290 290 290 290 289 290 290 290 290 290 290 290 289 289 291 291 290 291 291 291 292 292 290 289 288 288 288 288 287 288 288 288 289 290 290 291 292 291 292 294 294
283 283 283 283 284 284 284 283 283 284 284 285 287 291 292 288 286 286 285 284 284 284 284 284 285 285 285 285 286 286 287 287 287 288 290 290 290 290 289 289 289 289 289 289 289 289 289 288 288 289 288 288 289 289 289 289 290 291 291 291 290 291 291 290 290 292 291 288 287 287 288 288 287 287 288 287 288 287 287 287 288 289 290 293 294
283 283 283 284 284 284 284 283 283 284 285 285 289 292 293 293 287 284 284 284 284 283 283 283 283 284 284 285 285 285 286 286 287 288 289 290 290 290 291 290 290 289 288 288 288 289 288 288 288 288 288 288 288 289 289 289 289 289 290 290 290 290 289 288 287 290 290 288 286 287 287 289 287 286 287 287 287 286 287 287 290 291 292 293 293
282 281 283 282 283 283 284 283 283 283 283 287 290 291 291 292 291 287 283 283 283 283 283 283 283 283 284 284 284 285 285 286 286 286 287 288 289 289 290 290 290 291 291 289 288 288 288 287 287 288 288 287 288 289 289 289 288 289 290 290 290 289 288 288 288 287 289 287 285 285 287 289 286 286 286 287 286 286 286 288 291 292 293 293 293
281 282 280 282 282 282 282 283 283 283 282 286 290 291 291 291 291 288 283 281 283 282 282 283 283 283 283 283 284 285 285 285 285 285 285 285 287 288 288 288 289 289 290 291 292 290 289 288 288 288 288 289 288 288 289 289 289 288 289 288 289 289 288 288 288 289 291 289 285 285 285 288 286 284 285 287 287 286 286 290 292 292 293 293 293
281 280 279 280 280 281 282 282 282 282 282 286 290 290 290 291 291 290 282 282 282 282 282 282 282 282 282 282 283 283 284 283 283 283 284 285 285 285 286 286 286 287 288 289 289 289 289 289 289 288 289 290 288 289 290 290 288 287 287 287 288 287 287 287 289 289 290 290 286 287 285 287 288 284 284 286 287 285 285 287 290 291 292 293 293
280 280 280 279 279 279 279 280 281 282 283 288 290 290 290 290 291 290 283 282 282 281 282 281 282 282 282 282 282 282 283 283 284 285 284 285 285 285 285 285 285 286 286 286 286 286 286 287 288 289 290 290 290 290 290 290 289 289 289 288 288 288 288 289 289 289 289 291 289 286 283 287 288 284 285 287 286 285 285 287 290 290 291 292 292
277 278 278 277 278 279 279 278 280 281 282 287 288 289 289 290 291 285 282 281 281 281 281 281 281 281 281 281 281 282 283 283 285 287 287 286 285 284 284 284 285 285 286 287 289 289 288 288 288 288 289 290 291 290 290 289 289 289 289 289 289 288 287 285 285 287 287 290 289 286 284 285 288 286 285 287 286 285 285 283 287 289 290 291 291
277 278 277 277 277 277 278 278 277 279 280 283 287 288 289 290 288 282 280 280 280 280 281 281 281 281 280 280 281 282 282 282 285 287 288 287 284 283 283 283 284 284 284 285 288 289 289 290 290 291 291 292 291 292 292 292 291 291 289 287 286 287 285 284 284 286 286 288 286 286 286 284 287 287 285 286 284 284 284 283 283 287 289 290 290
277 277 277 278 277 277 277 277 277 277 279 282 286 288 289 289 287 282 281 280 280 280 281 282 282 282 282 282 282 281 282 282 286 287 287 286 284 283 283 283 283 283 284 285 285 286 288 288 288 289 289 289 289 290 290 290 290 290 287 284 285 286 284 284 282 284 286 287 288 287 283 284 286 286 284 284 281 281 282 283 283 283 286 287 289
276 276 277 277 276 276 275 276 279 278 276 280 285 287 287 287 285 282 281 279 280 280 281 281 281 282 281 282 283 284 283 284 286 286 287 285 284 284 284 283 282 282 284 285 284 284 285 285 285 286 286 287 287 287 287 288 288 288 287 286 286 285 283 283 284 284 283 284 288 287 283 284 285 285 283 278 279 284 283 283 282 282 281 282 283
Wind_Speed
6 5 5 6 5 5 5 6 6 6 5 4 5 5 5 5 4 4 3 1 1 1 2 2 1 1 1 1 1 0 1 2 3 4 4 5 4 4 5 4 3 4 6 6 6 10 9 5 5 6 4 6 6 5 5 5 3 4 4 5 5 4 4 5 6 6 6 6 6 7 7 7 7 8 8 8 8 8 8 7 8 7 7 6 6
6 6 5 6 6 5 5 5 6 6 5 5 6 5 4 3 3 3 3 3 2 4 3 3 3 3 1 2 2 2 1 3 3 4 4 4 4 4 6 6 5 5 6 7 10 9 7 6 8 8 8 6 7 8 7 6 6 6 6 6 6 6 6 7 7 7 7 7 7 8 7 8 8 8 9 9 9 8 9 8 8 8 7 7 6
6 6 6 5 5 5 5 5 5 6 6 5 5 5 5 5 5 5 4 4 5 4 4 4 3 3 2 2 4 3 2 1 3 3 3 4 4 4 5 8 7 7 8 10 12 12 10 9 10 7 8 8 8 9 10 9 9 7 8 7 7 8 8 8 9 8 8 8 9 9 9 9 10 9 10 10 10 11 10 9 9 9 8 8 8
5 5 6 5 5 5 4 4 6 4 5 5 5 5 5 5 4 4 4 4 5 3 4 4 4 3 2 3 2 2 3 2 2 4 4 4 5 5 5 6 8 9 10 11 13 13 14 11 13 10 10 12 12 10 12 9 12 11 10 8 9 10 10 10 10 9 10 10 10 10 10 10 10 11 10 11 11 11 11 11 11 10 10 10 10
5 4 4 6 6 5 5 4 5 4 4 4 4 4 4 3 4 2 3 1 2 3 2 3 3 3 3 4 3 3 2 1 3 2 4 4 6 6 6 6 5 9 12 11 11 12 13 13 12 13 13 15 13 10 15 13 15 13 11 12 11 11 12 12 12 12 12 12 12 12 12 12 11 12 12 12 12 12 12 12 12 12 11 10 10
4 4 4 5 5 6 6 5 4 4 4 4 5 5 4 3 4 2 3 2 3 2 2 4 4 3 2 4 4 5 4 3 3 3 2 3 4 4 6 6 6 6 7 11 12 12 11 14 13 14 14 14 14 14 13 15 15 14 14 14 13 13 13 14 14 14 14 14 14 14 13 13 13 13 13 13 13 13 13 13 12 12 13 12 11
3 3 4 5 6 6 6 6 6 4 5 5 6 4 4 5 3 4 3 3 2 3 2 4 4 5 4 3 5 5 4 5 4 3 2 3 2 3 4 5 7 6 6 6 9 13 14 13 14 13 14 16 16 16 16 14 16 15 17 17 15 15 14 15 16 15 16 16 15 15 15 14 15 14 14 15 15 15 15 14 14 14 13 13 13
4 3 2 3 4 6 6 6 5 5 6 5 4 5 5 4 3 3 4 5 3 4 2 4 4 5 4 4 5 4 5 4 4 4 3 3 4 4 4 4 4 6 6 6 6 7 13 13 11 12 13 15 17 18 19 20 19 19 19 19 19 17 17 17 17 17 16 17 17 17 17 16 16 16 16 17 16 16 16 16 17 16 15 15 15
6 4 4 3 4 4 5 6 5 5 5 5 6 6 5 5 4 4 4 5 4 4 4 5 5 4 4 4 5 4 5 5 4 4 3 4 4 4 4 5 5 5 5 5 6 6 9 12 13 14 13 13 15 17 20 21 20 19 17 19 21 20 18 18 18 19 18 17 17 18 17 18 18 18 18 19 18 18 18 18 18 18 17 17 18
7 7 4 4 5 4 4 5 6 6 6 5 6 5 5 5 5 4 5 4 5 5 6 5 5 5 5 5 4 3 4 4 3 2 4 5 5 5 6 6 5 6 6 6 6 5 5 7 10 11 12 11 14 15 19 21 22 23 21 21 20 20 20 20 19 20 21 20 20 20 20 21 20 20 20 20 20 19 19 19 19 18 18 18 19
7 7 8 8 6 5 5 4 4 5 5 5 3 3 3 4 5 5 3 5 5 5 6 6 5 5 5 5 3 4 3 3 3 4 5 6 7 7 5 7 6 7 7 7 6 5 6 6 6 6 8 12 12 15 17 21 23 24 25 23 20 22 23 23 19 21 21 22 22 21 21 23 22 23 22 21 22 21 21 20 20 20 20 18 17
6 6 6 7 6 6 5 5 4 4 5 5 5 5 7 5 5 6 5 4 4 4 3 3 2 3 5 5 4 3 4 4 5 5 6 6 7 6 7 7 6 7 7 7 6 6 6 7 6 7 6 9 13 12 14 15 18 23 25 26 25 22 23 23 22 23 22 23 23 23 22 23 23 23 23 23 23 22 22 22 22 21 20 19 18
7 7 7 7 7 6 5 4 4 5 5 6 6 8 7 6 5 5 6 5 5 3 3 3 2 3 4 6 6 5 7 7 8 8 9 8 7 7 7 6 7 7 8 6 6 6 7 8 8 7 7 6 8 11 13 13 16 18 23 25 27 27 26 24 25 25 22 24 25 25 24 24 24 24 24 23 23 23 24 23 22 22 22 21 20
8 8 8 7 7 6 6 6 6 6 6 7 7 5 5 5 4 3 4 7 6 5 5 4 2 6 5 5 4 5 8 8 9 10 9 8 8 7 7 8 9 8 6 6 6 7 8 8 7 7 7 7 8 7 8 10 12 17 20 23 26 28 29 27 25 25 24 23 25 27 26 26 26 26 25 25 24 24 25 25 25 24 24 23 23
8 8 7 7 7 7 6 6 6 6 6 6 6 7 6 7 6 7 5 2 3 2 6 7 5 1 1 2 5 4 2 2 6 9 9 8 6 7 9 7 10 8 6 5 6 8 8 7 8 8 8 8 8 8 9 9 11 14 16 18 21 26 30 31 30 23 25 25 23 26 27 28 28 27 27 26 25 26 27 27 27 26 27 26 26
7 7 7 7 7 8 7 7 8 7 8 7 7 8 6 6 6 7 5 4 4 6 6 7 6 5 3 5 2 0 8 4 3 5 6 9 7 9 6 8 8 7 5 7 8 7 8 7 8 8 8 8 8 8 8 9 13 15 16 17 18 19 25 29 30 32 26 27 23 25 27 29 29 28 28 28 28 28 28 28 28 28 28 28 27
6 7 7 8 7 8 8 8 7 6 7 6 6 7 8 7 8 7 8 8 8 5 2 4 6 6 6 1 2 1 5 5 4 6 2 3 6 7 6 7 8 8 6 8 6 7 8 8 8 8 9 9 8 8 9 9 10 11 13 16 17 16 19 24 28 31 32 30 24 25 25 30 29 29 28 29 30 29 29 29 29 30 30 28 28
5 5 5 6 7 7 5 7 8 6 5 7 7 6 6 6 7 8 9 8 8 5 4 3 7 7 7 7 6 7 4 2 3 6 2 5 5 3 5 6 7 7 6 6 7 8 7 9 9 9 9 8 8 8 9 10 10 10 10 12 19 18 17 20 25 29 32 33 32 27 27 26 29 29 29 30 31 30 30 30 30 30 30 29 29
5 5 5 6 6 6 7 5 4 4 5 6 6 7 8 9 7 7 9 7 6 8 8 5 2 5 7 10 10 8 4 2 7 3 9 3 2 3 5 6 8 7 7 8 8 8 8 8 9 9 9 9 8 9 9 10 12 13 14 19 18 19 21 25 24 26 28 31 34 31 33 30 25 27 29 30 31 32 33 32 32 31 30 30 30
6 6 6 5 5 4 4 4 4 5 6 7 8 8 5 3 5 4 2 3 5 7 7 6 6 4 6 9 9 8 6 5 6 7 7 10 12 5 5 6 6 7 7 8 9 9 10 8 9 9 9 9 8 8 9 10 10 10 11 18 22 22 22 21 22 26 26 27 30 32 34 34 36 26 27 31 30 31 32 31 31 31 30 31 30
4 4 4 3 3 3 3 3 4 4 5 5 5 5 6 6 5 5 6 6 6 7 6 7 5 8 5 6 5 7 6 6 5 3 6 8 12 8 12 1 3 6 6 8 9 8 9 10 9 9 9 8 8 8 9 9 10 10 10 17 21 23 24 25 24 25 26 25 26 30 32 34 36 35 32 28 27 31 32 31 33 32 32 32 33
1 1 2 2 2 3 3 3 3 3 3 4 4 5 5 6 8 9 9 9 7 8 10 9 8 7 7 5 5 4 5 5 5 5 6 9 12 9 9 11 12 8 5 6 9 10 10 10 10 9 9 9 8 8 9 10 10 10 11 17 20 23 24 24 27 26 24 25 26 27 30 32 33 35 36 35 33 28 31 34 32 32 33 33 33
1 1 1 1 0 0 0 1 0 0 1 1 3 3 3 4 4 4 4 7 6 7 7 7 6 6 8 8 9 8 8 7 5 5 7 6 6 10 10 8 9 12 7 7 8 9 10 8 9 9 9 9 8 8 9 10 12 13 16 15 18 20 22 24 25 26 26 26 26 27 27 28 30 32 34 35 37 32 33 25 28 30 31 31 35
2 2 2 1 1 1 0 1 2 2 2 2 2 3 3 3 4 5 5 5 4 4 7 9 10 8 7 5 7 8 7 8 9 8 8 9 7 10 10 8 8 8 8 4 7 8 9 9 8 9 9 8 8 8 9 10 11 16 13 16 17 20 22 24 25 25 27 27 28 29 31 31 30 30 29 32 34 37 38 37 33 30 32 30 32
5 5 4 3 3 5 4 3 2 2 3 4 4 3 3 3 3 4 4 5 6 6 5 5 5 7 8 6 4 4 7 6 4 4 5 5 6 10 11 5 11 11 6 5 7 3 9 9 6 7 8 8 9 8 9 9 9 12 15 12 17 18 20 22 24 25 26 26 28 29 29 31 31 33 33 34 35 37 39 37 36 37 37 32 31
3 5 6 6 5 6 5 4 3 1 0 0 1 2 3 4 3 3 4 4 3 4 6 6 5 6 4 5 5 6 7 4 5 4 6 5 7 8 10 7 6 12 9 5 4 4 6 5 7 7 7 7 8 8 7 9 9 13 16 12 13 16 17 19 22 24 25 26 28 29 29 29 30 31 31 32 35 35 36 37 37 37 36 38 37
6 4 3 4 5 3 3 3 3 3 2 2 2 1 1 2 3 2 2 2 3 3 3 4 6 5 4 5 6 5 5 5 3 5 4 5 6 7 6 13 14 9 9 7 5 9 11 8 5 7 7 7 7 7 8 7 11 15 13 10 9 16 16 19 21 23 24 25 26 28 29 29 29 29 31 30 30 34 34 37 36 38 38 35 35
1 1 2 1 1 0 1 1 2 2 2 2 3 3 3 2 1 1 3 3 3 3 3 3 4 4 4 4 4 6 5 5 5 6 6 6 7 7 6 7 10 16 11 11 7 8 5 8 4 6 7 7 8 7 9 11 9 13 13 8 9 10 15 18 21 23 24 24 25 25 26 27 28 26 28 28 29 30 32 33 34 33 32 31 30
2 2 3 3 3 3 3 2 2 2 1 2 2 3 3 3 3 2 2 3 2 3 2 2 4 4 4 6 6 6 6 6 6 6 6 5 6 6 5 8 8 10 13 16 14 5 3 7 6 4 5 6 7 7 7 7 9 10 7 8 9 10 13 17 21 22 23 24 24 25 26 27 28 29 28 28 28 30 30 30 30 30 30 29 32
3 3 4 4 4 4 3 3 2 2 1 1 1 2 2 3 3 3 3 2 3 3 3 4 4 4 5 5 4 5 5 5 6 6 6 6 6 7 7 7 7 10 11 13 18 1 6 4 7 8 3 6 5 6 5 7 10 12 9 10 10 11 15 17 20 22 22 23 23 24 25 25 25 25 26 27 28 28 29 29 30 31 32 36 38
6 5 5 5 6 6 5 5 5 5 5 5 4 3 2 1 2 2 3 2 3 3 4 3 3 3 5 6 4 4 5 7 7 7 6 6 6 6 7 6 7 8 10 12 15 8 6 7 3 5 5 4 4 5 6 7 9 12 11 10 11 14 18 17 21 18 20 22 23 23 24 25 25 25 26 26 28 29 29 30 31 32 31 32 36
4 4 5 5 5 5 5 6 5 6 5 5 5 5 6 6 3 3 3 2 1 2 3 3 3 3 4 6 5 4 5 5 6 6 6 6 6 7 7 7 8 7 9 10 11 20 6 7 11 8 10 9 7 8 11 9 11 15 12 11 12 15 12 11 15 17 20 23 23 23 23 24 25 25 26 27 27 28 29 30 31 31 31 31 31
4 5 5 4 4 5 4 4 4 4 4 5 5 5 6 6 6 5 4 5 5 6 5 6 4 4 4 5 5 4 4 5 5 5 5 5 5 5 5 6 6 5 6 8 13 17 16 6 8 10 8 10 10 7 11 10 9 9 10 11 11 10 10 10 11 16 19 22 24 23 23 24 25 24 25 26 27 29 28 28 29 29 30 31 30
4 4 4 4 4 4 5 4 4 5 5 5 5 5 5 5 5 4 5 6 5 5 5 5 5 5 5 6 6 6 5 6 7 7 5 5 4 5 6 5 7 7 4 7 12 13 19 14 7 8 10 7 13 6 8 11 11 8 10 10 9 10 11 11 10 11 17 20 22 25 24 24 25 25 25 24 24 26 28 29 29 27 30 29 27
3 4 4 5 4 5 5 5 5 5 5 4 4 4 4 4 4 4 4 5 5 5 6 5 5 5 6 6 7 6 6 7 8 6 5 6 6 7 9 8 9 9 7 7 9 13 16 17 13 11 11 9 11 13 8 8 11 10 11 11 10 9 9 10 11 10 14 19 20 21 22 24 25 25 25 25 24 24 25 26 28 26 27 28 29
5 4 4 4 5 4 4 3 2 1 1 1 2 2 2 3 4 4 3 4 4 4 4 5 5 5 6 7 6 6 6 8 8 8 6 5 6 6 8 7 7 9 7 7 9 11 12 16 17 11 10 11 13 11 8 7 11 11 10 11 10 11 11 9 10 12 13 21 22 24 22 22 24 25 25 26 28 28 27 28 28 27 27 26 25
4 5 5 4 4 3 1 1 0 0 0 0 1 1 1 0 1 2 3 3 3 3 3 4 4 5 5 6 7 6 6 8 8 7 7 7 7 7 8 8 7 7 7 7 8 9 11 15 17 15 12 10 12 12 10 10 12 11 10 10 11 13 12 10 9 10 14 19 19 21 22 25 24 24 25 27 26 28 29 30 28 28 25 25 25
4 4 4 4 3 2 1 0 0 1 1 1 1 1 2 2 2 2 2 3 3 4 4 4 4 4 5 6 6 6 6 7 9 8 8 8 8 8 8 9 8 7 8 8 8 9 11 13 14 17 16 15 12 11 10 7 11 13 12 11 10 10 9 10 10 9 8 8 8 11 16 21 24 26 25 24 27 28 27 27 29 27 25 24 25
4 4 3 4 2 2 1 1 2 1 1 1 1 1 2 1 2 2 3 3 3 3 4 4 4 4 5 5 6 6 7 7 8 9 8 9 8 9 9 9 9 8 9 9 8 9 10 12 13 13 15 15 13 15 11 7 10 11 12 13 14 11 7 9 12 9 8 10 13 18 17 17 18 16 19 24 25 25 25 26 26 28 24 24 25
4 4 3 3 2 2 2 3 3 2 2 3 2 2 2 2 2 3 2 3 4 4 4 4 4 4 5 5 6 6 7 7 8 9 8 9 9 10 9 7 9 9 9 9 9 9 10 10 11 13 12 14 14 13 11 9 11 11 8 8 13 14 12 7 9 11 9 8 9 10 13 17 16 21 27 25 25 26 25 23 25 24 24 25 26
3 3 3 3 4 4 4 4 4 4 4 4 3 3 4 4 2 4 4 4 5 6 7 7 6 5 5 5 6 7 8 11 14 13 13 12 10 11 12 7 8 9 10 9 10 10 9 10 12 12 13 14 14 14 14 12 12 12 10 7 11 12 12 12 13 10 10 10 9 10 11 10 10 11 11 11 13 17 17 21 19 23 25 26 27
4 3 4 3 4 4 4 4 3 3 3 2 5 9 7 5 5 5 5 4 4 4 5 7 8 6 7 6 7 10 13 14 15 16 16 16 15 12 12 11 10 10 10 11 11 10 9 11 12 13 13 14 15 14 14 14 12 11 12 11 12 12 12 13 13 12 7 9 10 11 12 9 10 12 11 11 12 11 10 11 12 16 20 24 25
4 4 4 5 4 4 4 4 4 4 4 3 8 8 7 7 5 4 4 6 5 5 5 5 7 8 8 7 7 9 10 10 11 14 15 16 16 16 18 18 15 13 12 13 13 12 10 10 12 13 14 16 17 15 14 14 11 12 11 11 11 11 11 12 15 13 5 9 9 10 12 9 8 11 12 12 12 10 10 13 18 21 24 24 24
4 4 6 4 4 4 5 4 4 5 4 6 8 9 8 7 6 4 3 5 5 5 6 6 6 7 8 9 8 7 7 9 9 10 13 15 16 16 18 18 18 19 18 15 14 13 12 12 13 14 15 15 17 15 15 13 13 11 11 11 11 11 13 13 12 13 6 5 7 8 13 9 6 10 12 12 11 10 12 15 21 24 24 23 23
3 5 4 5 5 5 5 6 6 5 5 7 8 11 10 9 9 6 3 3 4 5 5 6 7 7 8 8 9 8 6 10 9 8 10 11 14 17 17 18 18 19 17 19 20 16 13 14 15 16 15 16 16 16 15 14 11 14 14 13 11 11 11 13 13 12 14 5 5 10 14 12 7 8 12 13 10 9 13 19 24 24 24 24 24
5 4 4 5 4 5 5 5 5 5 5 8 11 12 12 13 13 10 4 5 5 5 6 7 7 7 7 8 9 11 9 6 5 7 9 11 12 13 12 11 12 14 17 19 19 19 18 16 16 18 18 16 18 17 18 16 16 16 15 15 13 14 13 14 14 14 15 9 11 11 13 14 9 6 13 14 8 9 11 14 21 23 25 25 24
4 4 4 4 4 4 4 4 5 6 5 10 9 11 12 12 13 10 5 4 5 5 6 5 7 7 7 8 8 10 11 10 7 8 9 11 13 14 14 14 13 13 13 13 10 9 11 12 14 17 18 18 19 19 18 16 16 16 15 16 15 16 17 16 15 16 16 14 13 8 12 14 7 8 13 13 7 9 10 12 21 23 24 25 24
2 2 3 2 4 4 3 3 4 6 6 9 9 9 11 11 11 6 5 5 5 6 6 5 6 6 6 7 7 9 10 11 12 16 15 12 12 15 15 15 15 14 14 13 15 15 14 13 13 14 15 17 20 20 19 18 17 16 16 14 14 14 15 14 14 14 14 13 10 10 12 13 12 12 13 11 7 10 10 8 14 22 24 24 23
4 4 3 2 2 3 4 4 4 5 5 8 9 9 9 12 8 5 5 5 6 6 7 5 5 5 4 4 6 8 10 10 15 21 23 20 12 14 15 16 16 16 17 15 16 19 19 20 22 24 26 29 31 32 32 32 24 20 17 16 18 16 15 17 17 14 15 12 5 10 12 13 14 11 11 11 7 10 10 9 9 14 21 22 23
2 2 2 3 3 3 3 4 2 3 5 7 9 9 11 14 10 6 6 6 7 7 8 8 6 6 7 10 8 6 9 11 20 25 27 20 13 14 15 16 18 18 18 15 14 15 20 22 23 24 26 28 30 32 33 34 33 24 17 18 18 15 17 16 19 14 14 12 13 7 5 13 13 8 9 6 4 6 10 9 9 9 15 17 22
1 2 3 3 4 4 3 3 5 2 3 6 8 11 14 14 11 6 7 7 8 9 10 11 11 9 8 8 11 11 12 17 25 25 27 21 15 14 15 16 17 18 16 15 16 18 17 16 15 15 14 15 15 14 17 28 29 25 19 18 16 14 18 18 15 14 16 13 14 5 9 12 12 10 7 3 6 10 7 9 8 8 6 6 7
Wind_Direction
174 194 165 184 194 196 187 188 184 209 169 185 178 191 197 199 220 214 197 169 199 242 270 289 276 288 155 237 236 65 117 184 172 158 171 177 185 205 215 238 203 257 229 244 230 206 208 195 214 221 212 180 182 222 232 208 243 204 206 212 210 211 193 194 203 208 194 201 197 196 185 191 177 179 176 168 176 174 170 171 171 160 163 165 161
185 193 171 191 196 192 187 187 185 196 171 177 199 173 196 228 231 202 190 206 207 225 203 242 281 289 290 213 221 225 159 164 191 171 176 183 192 209 211 226 233 230 236 237 256 249 236 233 193 231 219 242 212 191 228 215 214 214 213 215 223 210 216 217 218 221 216 210 207 215 195 199 194 193 188 186 186 188 185 180 183 182 174 175 176
182 186 189 179 190 182 182 176 188 189 184 184 186 188 193 205 205 205 203 215 216 216 197 219 252 272 246 225 234 206 203 179 194 178 170 193 202 203 219 224 231 229 217 227 242 241 237 237 208 238 236 251 210 210 219 221 231 217 222 223 224 222 219 220 224 223 222 217 220 218 215 208 208 205 206 199 196 195 190 188 187 193 189 187 181
185 187 179 180 182 183 187 165 200 202 189 182 180 199 190 208 208 207 208 199 218 211 208 201 237 260 240 215 239 240 241 243 208 199 188 196 203 209 212 217 227 233 226 227 240 251 265 245 236 253 240 231 244 222 209 219 229 208 221 232 229 225 220 220 223 224 224 221 225 225 223 218 213 215 213 211 208 204 200 197 195 198 197 199 208
176 196 193 178 177 177 188 190 198 197 193 187 182 195 192 206 240 226 200 196 244 260 255 224 220 256 276 252 200 212 232 244 254 238 214 203 202 206 211 216 220 230 235 233 238 252 260 270 277 269 246 240 256 253 202 209 211 237 234 225 236 230 222 221 219 220 223 225 224 229 227 225 222 221 219 219 217 214 212 208 204 205 203 201 217
170 182 186 191 181 179 183 198 202 195 190 183 184 188 196 191 223 191 225 213 237 253 216 245 249 248 261 260 240 224 210 227 239 230 234 217 195 202 215 216 223 229 233 236 237 241 252 260 263 271 268 252 250 259 239 231 233 232 229 242 234 235 229 223 222 219 220 222 226 227 226 230 226 226 225 224 224 220 219 218 213 209 212 213 211
157 157 180 191 185 187 187 196 192 188 186 193 179 191 189 206 186 204 239 248 254 272 221 234 242 249 252 251 227 227 224 224 229 230 207 232 188 206 211 212 219 231 240 246 245 243 243 246 252 257 266 255 244 251 249 236 229 225 215 226 233 235 236 225 225 225 221 224 224 224 227 229 230 227 225 226 224 224 225 225 218 216 216 217 219
172 141 159 189 193 190 195 193 193 182 191 186 170 185 199 203 213 189 215 250 255 265 264 261 252 252 257 256 245 227 220 225 232 229 228 214 239 245 246 237 229 228 230 239 251 255 253 254 258 259 262 266 252 242 246 251 249 237 223 225 232 235 236 229 228 230 228 225 226 226 224 221 226 231 231 229 227 224 225 228 226 222 216 216 220
197 196 180 212 207 214 207 191 187 188 190 187 185 192 186 201 219 213 194 221 224 247 262 251 258 251 258 256 244 222 217 217 225 230 252 247 247 241 245 244 244 244 238 233 236 244 257 256 254 254 255 260 263 260 260 258 256 260 251 240 243 243 231 231 228 229 228 231 229 227 227 227 225 226 229 232 229 229 230 230 232 229 230 227 222
193 195 211 208 215 211 215 194 180 189 194 185 200 188 187 186 218 217 199 197 210 213 234 244 246 250 250 243 235 212 220 223 224 230 224 245 248 249 244 250 245 244 243 239 236 242 250 260 265 265 262 261 259 258 256 256 256 258 251 248 247 242 235 240 231 228 227 225 224 223 224 226 227 228 227 229 231 231 230 230 233 233 230 226 227
192 196 202 222 224 217 213 216 192 185 184 187 184 192 203 199 204 228 217 212 201 202 216 223 240 245 244 248 265 263 285 284 286 262 249 237 238 240 239 244 241 245 241 240 239 238 244 248 252 252 254 253 254 256 255 255 261 259 260 260 250 242 246 248 243 239 232 230 232 227 223 226 225 226 225 228 231 230 230 231 230 232 235 237 238
202 202 203 207 217 220 218 209 200 184 187 184 193 192 209 207 219 210 227 245 234 210 194 193 215 239 251 264 259 268 270 263 266 255 252 246 245 241 239 241 236 244 240 239 238 241 242 245 243 244 244 252 253 253 256 258 256 256 257 259 258 248 249 250 245 245 240 236 234 233 230 227 226 229 229 228 230 231 231 232 231 229 229 232 233
199 196 205 206 213 217 220 223 204 193 196 206 206 213 210 201 205 195 208 227 241 206 209 143 171 286 272 261 273 244 244 241 244 245 239 242 242 241 244 247 243 244 242 238 237 238 241 244 246 246 248 249 260 257 256 258 257 256 255 256 260 261 258 249 248 245 239 240 235 230 229 230 230 230 233 230 229 233 234 234 234 234 233 231 231
199 201 204 203 209 214 215 218 208 207 208 211 214 210 199 202 192 213 215 211 227 191 199 141 239 229 260 310 295 273 240 229 239 245 242 243 238 239 240 239 245 243 246 238 242 239 240 242 246 248 247 247 250 254 258 257 256 255 253 255 257 259 261 259 252 243 240 239 238 236 232 229 228 227 227 229 230 231 232 232 230 228 229 227 225
199 198 202 205 206 207 213 214 212 202 207 215 208 208 203 203 194 201 227 268 249 212 197 191 226 99 69 356 290 326 337 316 259 255 249 246 236 237 237 240 246 246 244 244 246 248 245 242 244 243 245 244 246 248 250 251 251 253 255 255 255 257 260 262 259 250 247 237 235 239 237 235 234 231 228 226 224 226 228 229 228 225 223 223 223
190 194 199 202 202 206 210 212 217 206 205 206 203 212 202 208 203 211 185 231 226 236 201 204 185 124 284 214 244 125 308 290 307 278 224 242 228 236 231 239 248 252 240 239 245 249 253 250 249 247 249 250 248 250 250 251 251 253 255 258 256 256 260 262 264 259 253 249 233 239 241 238 236 234 233 231 231 230 229 230 229 228 226 224 223
195 189 191 201 203 207 209 215 216 203 197 206 209 214 211 207 199 195 195 214 239 241 233 200 213 207 196 89 304 282 227 283 342 278 212 263 245 233 235 238 243 244 233 245 250 252 253 254 250 251 250 248 250 249 252 254 256 252 253 253 252 254 257 259 262 265 263 259 248 243 244 243 236 236 233 234 233 234 231 231 231 230 228 226 223
200 206 205 210 215 209 205 209 209 197 190 203 212 211 214 207 205 205 211 211 218 233 239 216 222 222 234 239 238 265 280 223 29 294 334 214 242 222 235 235 247 249 239 247 248 250 243 252 250 250 248 247 246 247 247 248 250 250 250 251 249 246 249 253 258 263 263 261 259 254 250 246 245 237 236 236 236 236 235 235 233 231 230 230 228
205 209 219 221 221 216 220 210 198 199 201 203 207 209 211 211 208 205 212 208 195 229 233 228 201 250 233 240 255 259 240 243 251 308 296 308 281 228 246 223 239 235 237 238 241 245 247 240 248 248 247 245 241 243 246 249 248 250 247 252 254 255 252 251 251 255 260 263 263 261 259 259 247 242 239 237 238 238 236 234 234 234 231 230 230
204 213 218 212 212 221 215 218 219 219 207 211 214 214 214 213 197 216 231 204 203 223 238 218 205 238 199 235 245 262 276 263 251 243 274 292 290 271 218 228 228 237 221 236 236 238 247 244 245 244 247 244 238 240 243 244 248 249 251 252 252 250 249 249 248 248 250 257 261 263 263 261 260 250 246 243 240 240 242 241 240 239 236 233 231
211 195 190 186 184 208 224 235 237 242 222 224 220 205 198 186 178 190 202 212 205 221 237 241 212 243 207 245 242 248 257 251 260 225 237 264 274 268 288 251 256 243 229 224 240 237 241 246 242 242 242 243 235 236 240 242 245 244 246 248 251 252 251 251 248 248 250 250 253 259 261 263 263 264 261 247 242 243 240 240 242 241 240 237 233
55 104 144 160 175 196 208 225 233 244 233 229 210 203 204 207 205 203 205 207 203 207 219 232 232 235 217 215 202 236 244 261 239 232 251 234 260 268 272 285 289 276 203 227 237 239 241 239 243 244 241 241 237 235 236 240 241 242 243 244 247 251 254 255 255 253 251 250 252 253 258 261 262 263 263 264 257 247 249 244 240 235 238 240 240
87 57 152 133 70 103 192 238 267 315 235 262 263 250 251 246 249 255 245 231 229 227 231 247 250 238 226 217 228 220 231 233 229 207 223 243 259 260 262 249 247 278 263 217 234 242 243 236 239 241 239 239 239 233 235 239 241 242 243 244 245 248 253 255 256 256 256 255 253 253 252 255 259 261 263 264 265 264 261 244 244 245 245 245 244
58 23 6 33 60 21 126 277 274 272 265 239 247 246 248 239 239 236 237 231 234 226 223 228 228 235 239 226 228 226 229 233 238 229 219 245 251 274 278 286 270 241 275 255 239 252 252 243 232 237 237 243 239 232 237 242 245 246 244 246 246 248 251 254 255 256 256 257 258 257 256 254 254 256 260 262 265 265 263 263 261 256 250 247 246
346 339 319 309 257 251 257 260 284 269 277 287 277 260 241 233 236 243 239 235 230 234 244 247 234 229 237 244 258 262 256 264 277 260 256 258 253 273 274 255 275 283 269 265 275 240 246 261 231 233 233 234 240 234 233 237 244 243 242 248 248 250 250 253 258 259 260 258 258 259 259 259 257 256 255 258 261 263 264 263 260 261 260 254 248
270 266 243 241 246 238 230 226 218 191 126 8 357 330 314 289 266 255 251 251 242 235 238 245 249 248 243 249 242 245 254 256 255 249 257 263 265 264 288 283 251 278 283 244 251 261 267 236 248 241 239 232 242 236 237 239 244 248 244 242 251 252 250 251 254 257 258 259 260 258 258 258 258 258 259 259 260 262 265 265 264 263 258 257 255
209 235 262 260 255 249 229 214 212 199 212 280 281 294 318 321 311 301 303 286 262 259 258 255 259 264 260 251 262 264 267 267 252 257 250 246 255 268 282 296 294 269 270 261 238 233 267 270 228 257 234 241 239 241 240 240 240 245 246 244 248 252 254 253 256 258 258 258 257 256 256 257 257 258 258 259 259 262 265 266 267 269 268 265 259
213 112 10 52 113 36 2 300 305 293 260 249 267 270 258 251 281 328 312 317 306 293 280 275 272 274 273 276 273 263 263 264 254 254 251 251 255 263 262 274 290 299 296 284 260 271 188 263 267 237 238 231 239 236 241 241 247 244 244 244 245 250 252 253 257 258 258 258 257 254 253 254 256 257 257 256 259 260 262 266 269 268 270 272 271
143 138 111 84 76 80 63 22 357 333 337 322 297 294 294 264 233 221 237 244 231 249 265 284 271 270 265 259 254 263 258 255 263 266 269 270 266 262 251 256 268 281 295 299 286 244 263 183 273 280 226 235 240 238 246 243 245 245 244 241 243 244 246 248 254 257 258 258 257 257 259 259 257 258 258 257 257 259 261 263 264 266 265 265 267
85 58 58 50 51 57 62 49 35 58 41 347 343 305 300 282 280 290 282 280 262 262 232 225 249 258 274 285 289 294 304 301 277 267 268 263 264 259 258 252 245 258 275 285 290 215 263 201 228 267 245 252 250 263 242 252 245 244 245 240 243 244 242 242 247 252 254 258 259 258 257 257 256 255 256 257 258 258 260 261 262 264 264 264 263
52 44 47 47 40 34 38 29 31 22 13 16 7 22 40 14 346 319 306 309 269 279 286 271 260 246 256 261 258 260 257 258 260 257 247 245 247 258 263 265 256 253 266 278 285 288 134 285 241 265 268 252 240 250 254 250 251 242 247 244 245 246 244 246 247 248 255 258 259 259 259 258 257 257 257 258 258 261 261 261 262 261 263 265 266
58 63 66 63 54 46 37 46 41 34 31 24 23 16 18 23 10 1 337 15 347 294 289 291 279 274 276 280 277 278 283 280 278 273 269 256 249 247 246 249 255 252 264 271 271 281 264 284 287 268 270 270 254 258 263 258 260 252 257 253 252 252 253 258 257 251 253 256 259 261 261 261 259 258 258 258 257 259 260 262 261 262 263 264 264
57 59 65 67 66 62 56 49 49 43 40 28 23 24 26 15 8 1 355 6 358 337 338 333 330 318 301 296 302 308 318 309 303 308 306 302 302 291 286 279 266 254 257 273 280 284 288 243 261 281 276 280 277 247 262 263 261 258 249 255 260 258 256 255 257 252 249 256 258 258 260 261 261 259 258 258 260 261 261 262 263 264 263 264 264
73 73 71 70 70 65 58 36 35 30 30 22 14 23 17 14 360 1 6 2 355 343 351 338 337 335 329 319 315 314 309 298 298 295 296 301 301 298 285 282 278 277 250 266 272 279 285 294 257 277 280 267 279 245 235 269 266 254 254 251 251 250 253 256 256 258 250 252 256 260 259 256 257 257 258 260 260 261 262 263 262 262 262 263 263
54 76 89 82 74 67 53 43 34 28 20 17 11 17 10 9 1 353 1 360 353 346 344 336 334 336 328 322 316 320 324 314 306 302 302 291 284 279 278 271 272 269 258 240 263 276 283 286 288 284 284 281 270 283 267 256 266 268 270 268 260 255 248 247 255 258 253 252 252 253 255 257 258 258 258 258 260 260 261 261 261 261 262 263 265
57 41 57 75 73 77 76 67 73 84 62 58 32 26 18 11 3 357 355 356 341 330 320 317 317 318 311 309 305 307 305 298 297 298 293 281 278 275 274 273 264 271 262 252 243 262 278 288 290 286 282 290 284 277 273 265 273 272 264 268 266 261 261 248 246 255 253 257 256 260 260 262 263 263 261 262 265 264 263 262 261 259 259 260 261
49 54 45 53 67 70 97 143 175 305 255 265 338 325 309 315 310 303 310 312 311 304 301 298 304 302 301 297 299 304 304 298 295 294 295 291 284 280 279 279 274 271 269 256 259 255 268 276 285 289 288 275 278 283 278 281 279 272 267 258 263 265 259 254 249 254 256 257 256 258 262 264 262 263 265 266 265 266 265 264 262 261 261 262 262
59 55 66 53 78 80 92 183 198 276 293 298 283 288 297 312 319 308 297 290 282 281 282 280 277 278 278 283 285 287 287 286 288 289 289 287 287 281 280 282 279 276 276 272 262 263 264 270 279 290 294 292 287 280 281 263 280 287 283 272 260 257 264 266 253 250 242 242 243 251 254 259 264 263 261 264 267 266 265 264 264 264 263 262 263
83 70 54 59 32 71 43 46 30 345 337 340 339 319 314 312 306 305 302 301 289 284 279 283 287 283 279 278 281 281 280 278 281 284 289 287 281 279 275 279 281 280 277 275 273 269 268 274 276 274 283 284 284 289 290 280 260 264 279 290 288 275 238 243 267 254 236 242 242 245 248 250 250 258 265 263 260 261 262 263 262 263 263 263 263
92 94 83 82 32 60 31 37 7 23 23 11 348 332 314 300 307 302 298 304 311 307 301 294 286 285 280 282 279 278 274 273 272 278 277 281 284 281 275 270 278 279 275 276 274 269 269 270 271 280 276 283 288 278 282 278 277 270 246 248 269 287 286 252 234 263 262 235 244 250 245 253 258 258 259 261 260 259 260 262 263 263 263 264 264
79 80 84 78 65 41 30 34 19 9 23 357 345 341 337 329 329 329 330 332 329 325 322 319 314 305 294 279 277 276 270 270 269 269 269 268 278 285 283 275 270 275 277 273 272 270 268 269 274 270 276 277 276 285 287 280 269 269 278 260 266 269 279 285 276 255 245 250 248 246 250 235 242 247 246 250 253 256 259 260 262 263 260 259 259
64 56 59 63 66 59 42 29 31 20 7 359 347 347 351 349 340 338 333 327 322 313 312 312 310 308 300 295 283 274 277 279 279 279 278 275 268 261 273 285 279 274 272 276 274 269 270 270 267 275 277 274 277 276 277 274 280 282 279 278 277 278 279 274 275 269 239 216 243 250 251 237 228 244 245 246 249 242 240 248 245 248 252 253 256
55 46 55 48 40 34 40 27 20 15 1 348 342 350 351 349 347 329 321 313 313 307 303 301 302 308 305 300 296 297 293 288 289 288 286 286 286 282 275 268 265 264 275 276 273 277 274 264 272 274 271 276 276 277 278 283 281 281 281 279 277 280 275 283 285 289 215 202 215 251 260 244 208 237 245 241 244 238 230 241 244 248 252 254 255
37 47 50 41 33 21 19 25 21 3 348 338 338 345 343 339 330 310 294 294 299 302 303 302 299 299 299 301 297 292 290 290 294 299 296 294 292 288 285 283 278 268 256 255 271 278 274 278 274 268 275 273 278 284 284 284 286 288 281 278 275 271 276 271 270 276 273 174 217 239 263 260 189 228 247 245 240 231 235 236 241 247 250 252 254
45 50 31 35 26 12 17 11 3 353 344 334 335 343 343 343 342 342 322 296 299 298 299 297 296 297 298 298 300 292 283 285 292 292 293 296 294 291 286 283 279 276 272 264 257 257 270 269 271 274 267 275 277 275 276 280 286 288 289 284 277 273 269 272 269 277 280 248 221 257 267 269 232 222 250 250 239 231 244 246 244 246 249 250 251
46 40 34 32 23 19 11 2 347 340 335 332 340 342 342 340 339 343 334 323 306 295 292 293 292 292 290 295 299 302 302 297 285 289 296 300 301 302 302 296 291 285 282 275 271 265 258 260 265 268 271 271 274 276 279 284 287 284 286 283 285 281 274 269 274 273 274 266 250 268 270 267 254 217 250 258 237 229 239 235 239 244 247 247 249
39 25 16 20 13 16 359 355 346 336 329 331 334 335 333 330 328 333 320 311 298 288 285 279 281 280 285 285 287 289 299 306 309 303 304 303 303 303 302 299 295 292 287 287 282 274 266 258 260 263 269 271 272 276 278 279 277 278 277 280 280 279 277 276 271 264 267 260 254 242 259 268 258 234 251 259 243 236 237 236 237 240 243 245 246
26 44 21 42 22 357 349 353 353 331 322 324 322 321 324 317 320 321 314 307 301 297 292 287 278 278 278 283 290 297 302 308 313 315 313 311 305 305 306 305 303 299 293 288 287 278 271 269 265 265 267 270 271 273 275 276 276 276 277 276 274 270 271 271 271 274 269 265 240 228 252 260 258 250 259 262 244 251 243 234 236 238 241 244 244
30 20 14 352 331 349 341 348 344 315 312 320 324 315 314 328 335 331 319 313 307 305 305 302 296 292 293 292 297 302 308 310 316 319 322 326 316 310 307 306 304 302 300 302 298 291 286 281 279 279 278 281 283 284 284 282 281 281 282 280 276 277 279 279 274 272 270 275 234 213 243 259 256 253 258 262 243 251 254 242 236 236 240 243 244
17 355 347 353 351 356 341 317 307 298 304 315 326 319 352 358 359 347 333 333 324 328 325 327 329 325 318 321 320 311 313 314 323 325 323 324 315 311 307 305 304 302 300 305 305 299 294 288 283 278 278 280 280 282 283 285 287 287 284 280 281 285 279 276 280 277 281 276 268 221 233 249 265 256 261 279 289 244 251 251 241 237 238 242 244
20 355 2 8 349 342 318 282 295 287 301 329 345 1 6 4 5 355 349 349 347 348 345 336 333 331 328 330 328 330 327 321 321 320 320 320 313 311 310 305 303 300 302 308 305 304 306 305 299 297 286 276 274 271 274 276 274 272 269 268 272 266 273 275 273 279 278 266 268 179 230 260 263 257 241 291 264 260 226 237 234 231 226 225 236